OneWeb SL0687

operational
NORAD ID: 61595 Int'l Des: 2024-188 Owner: ONEWEBE Country: UK Constellation: oneweb
LEOCIRCULARPOLARONEWEB_TYPE

About OneWeb SL0687

Description loading...

Live Position

Loading 3D Globe...

Upcoming Passes

Altitude History

Altitude vs Time

uPlot chart will show altitude changes over time

Two-Line Element Set

1 61595U 24188B 26033.52000130 -.00000202 00000-0 -55441-3 0 9992
2 61595 87.9081 32.6455 0002385 87.8928 272.2477 13.17648931 68161
Epoch: Feb 2, 2026 • Age: 16 hours

Current Status

Altitude 1209.2 km
Velocity 7.25 km/s
Sub-Earth Point -37.56°S, 18.37°E
Launch Date Oct 20, 2024
Age 1.2 years
Type internet

Technical Details

Classification Payload
Mass 148.00 kg
Dry Mass 140.00 kg
Total Mass 148.00 kg
Length 1.30 m
Diameter 1.00 m
Span 5.00 m
Shape Trapezoid+2 pan
Manufacturer ONEWUS
Bus Type ARROW
Phase Status In Orbit
Owner/State ONEWEBE/UK

Large Constellations

Loading constellations...